Back to catalog

STARLINK-36969

AliveCommunicationsVLEO
NORAD 68167·PAYLOAD·🇺🇸 United States

Launched Mar 14, 2026 from Vandenberg Space Force Base

Loading…

Next Passes (next 24 hours)

TLE

FreshSource: CelesTrak SupGP

Epoch: Sep 14, 2026, 23:01 UTC

1 68167C 26050A   26257.95951389 -.00000747  00000+0 -22084-4 0  2578
2 68167  53.1575 103.5404 0001216  86.5005  95.7765 15.34384950    19

Track STARLINK-36969 in real time with AllMySat

Download on the App Store